Location: Unspecified
(51.6250°N, 0.8230°E)
Time: 03:53:34
(UTC+01:00)

Resurs 1-4 Rocket - Visible Passes

Search period start: 21 August 2017 00:00
Search period end: 31 August 2017 00:00
Orbit: 799 x 815 km, 98.5° (Epoch: 20 August)

Date Brightness Start Highest point End Pass type
(mag) Time Alt. Az. Time Alt. Az. Time Alt. Az.
21 Aug 4.5 01:40:44 10° ENE 01:42:37 12° E 01:44:30 10° ESE visible
21 Aug 2.2 03:18:10 10° NNE 03:23:27 70° ESE 03:26:18 28° S visible
21 Aug 3.5 04:58:46 10° N 05:02:50 23° WNW 05:06:54 10° WSW visible
22 Aug 2.9 02:53:43 10° NNE 02:58:47 45° E 03:01:21 26° SSE visible
22 Aug 3.0 04:33:50 10° N 04:38:31 33° WNW 04:42:25 14° WSW visible
23 Aug 3.5 02:29:26 10° NNE 02:34:01 30° E 02:36:24 21° SE visible
23 Aug 2.5 04:09:02 10° N 04:14:07 50° WNW 04:17:28 20° SW visible
24 Aug 4.1 02:05:26 10° NE 02:09:11 19° E 02:11:26 15° ESE visible
24 Aug 2.1 03:44:21 10° NNE 03:49:37 75° WNW 03:52:31 27° SSW visible
25 Aug 4.5 01:42:08 10° ENE 01:44:14 12° E 01:46:20 10° ESE visible
25 Aug 2.2 03:19:45 10° NNE 03:25:02 73° ESE 03:27:34 31° S visible
25 Aug 3.5 05:00:22 10° N 05:04:24 23° WNW 05:08:25 10° WSW visible
26 Aug 2.8 02:55:17 10° NNE 03:00:22 47° E 03:02:36 30° SSE visible
26 Aug 3.0 04:35:26 10° N 04:40:05 33° WNW 04:43:40 15° WSW visible
27 Aug 3.5 02:30:59 10° NNE 02:35:37 31° E 02:37:39 24° SE visible
27 Aug 2.5 04:10:37 10° N 04:15:40 48° WNW 04:18:43 23° SW visible
28 Aug 4.0 02:06:56 10° NE 02:10:46 20° E 02:12:41 17° ESE visible
28 Aug 2.1 03:45:55 10° NNE 03:51:11 73° WNW 03:53:46 31° SSW visible
28 Aug 3.9 05:27:10 10° NNW 05:30:11 16° NW 05:33:12 10° W visible
29 Aug 4.5 01:43:33 10° ENE 01:45:51 13° E 01:47:44 11° ESE visible
29 Aug 2.2 03:21:19 10° NNE 03:26:37 75° ESE 03:28:48 36° S visible
29 Aug 3.5 05:01:58 10° N 05:05:57 22° NW 05:09:52 10° WSW visible
30 Aug 2.8 02:56:50 10° NNE 03:01:57 48° E 03:03:51 34° SSE visible
30 Aug 3.1 04:37:01 10° N 04:41:38 32° WNW 04:44:55 17° WSW visible
